AFL1544 UUEE-UWPP

Flight info

Callsign AFL1544
Flight time 1h 11m
Altitude 33000
Route TOGMO3E TOGMO M56 NERIK NERIK1N
Aircraft A320/M-SDE2E3FGHIJ1RWY/LB1U1

Departure

Time 2026-04-24 08:39
Airport Sheremetyevo International Airport (UUEE)

Arrival

Time 2026-04-24 09:51
Airport Penza Airport (UWPP)
Time Latitude Longitude Altitude Speed Heading
2026-04-24 08:14 55.97581 37.40041 639 ft 0 kts 345°
2026-04-24 08:22 55.97580 37.40041 639 ft 0 kts 345°
2026-04-24 08:32 55.97586 37.40038 639 ft 2 kts 345°
2026-04-24 08:32 55.97623 37.40015 639 ft 9 kts 326°
2026-04-24 08:32 55.97626 37.39913 639 ft 8 kts 254°
2026-04-24 08:32 55.97612 37.39823 643 ft 7 kts 255°
2026-04-24 08:33 55.97594 37.39761 643 ft 5 kts 216°
2026-04-24 08:33 55.97560 37.39764 639 ft 7 kts 163°
2026-04-24 08:33 55.97515 37.39793 639 ft 8 kts 168°
2026-04-24 08:33 55.97448 37.39822 639 ft 10 kts 163°
2026-04-24 08:34 55.97375 37.39859 639 ft 14 kts 165°
2026-04-24 08:34 55.97355 37.39981 641 ft 11 kts 74°
2026-04-24 08:34 55.97373 37.40103 639 ft 10 kts 75°
2026-04-24 08:34 55.97394 37.40242 642 ft 16 kts 76°
2026-04-24 08:35 55.97424 37.40447 639 ft 18 kts 75°
2026-04-24 08:35 55.97458 37.40668 639 ft 19 kts 75°
2026-04-24 08:35 55.97499 37.40940 642 ft 27 kts 75°
2026-04-24 08:35 55.97547 37.41264 643 ft 27 kts 75°
2026-04-24 08:36 55.97597 37.41596 639 ft 28 kts 75°
2026-04-24 08:36 55.97647 37.41929 642 ft 27 kts 75°
2026-04-24 08:36 55.97691 37.42223 646 ft 25 kts 75°
2026-04-24 08:36 55.97735 37.42522 643 ft 23 kts 75°
2026-04-24 08:37 55.97769 37.42756 641 ft 13 kts 76°
2026-04-24 08:37 55.97743 37.42792 639 ft 5 kts 165°
2026-04-24 08:37 55.97707 37.42808 645 ft 8 kts 166°
2026-04-24 08:37 55.97658 37.42830 644 ft 7 kts 165°
2026-04-24 08:38 55.97617 37.42850 638 ft 6 kts 165°
2026-04-24 08:38 55.97605 37.42824 646 ft 4 kts 244°
2026-04-24 08:38 55.97593 37.42762 639 ft 0 kts 255°
2026-04-24 08:38 55.97593 37.42763 639 ft 0 kts 255°
2026-04-24 08:39 55.97571 37.42613 642 ft 46 kts 256°
2026-04-24 08:39 55.97426 37.41646 640 ft 114 kts 255°
2026-04-24 08:39 55.97172 37.39964 676 ft 161 kts 259°
2026-04-24 08:39 55.96865 37.38005 1316 ft 162 kts 258°
2026-04-24 08:40 55.96561 37.36083 2111 ft 160 kts 261°
2026-04-24 08:40 55.96264 37.34201 2766 ft 158 kts 261°
2026-04-24 08:40 55.95962 37.32266 3248 ft 170 kts 261°
2026-04-24 08:40 55.95628 37.30086 3535 ft 194 kts 260°
2026-04-24 08:41 55.95250 37.27617 3837 ft 219 kts 259°
2026-04-24 08:41 55.94815 37.24803 4263 ft 244 kts 258°
2026-04-24 08:41 55.94349 37.21821 4837 ft 261 kts 258°
2026-04-24 08:41 55.93844 37.18641 5690 ft 268 kts 258°
2026-04-24 08:42 55.93331 37.15426 6577 ft 272 kts 258°
2026-04-24 08:42 55.92809 37.12158 7418 ft 276 kts 258°
2026-04-24 08:42 55.92281 37.08838 8280 ft 280 kts 257°
2026-04-24 08:42 55.91857 37.05439 9136 ft 282 kts 270°
2026-04-24 08:43 55.92049 37.01994 9923 ft 280 kts 290°
2026-04-24 08:43 55.92903 36.98903 10706 ft 278 kts 310°
2026-04-24 08:43 55.93800 36.97214 11231 ft 278 kts 323°
2026-04-24 08:43 55.95908 36.94568 12267 ft 282 kts 327°
2026-04-24 08:44 55.97673 36.93006 13003 ft 286 kts 344°
2026-04-24 08:44 55.99650 36.92520 13672 ft 291 kts
2026-04-24 08:44 56.01643 36.93200 14298 ft 295 kts 20°
2026-04-24 08:44 56.03462 36.94963 14941 ft 300 kts 33°
2026-04-24 08:45 56.04646 36.96355 15382 ft 303 kts 33°
2026-04-24 08:45 56.06398 36.98408 16025 ft 307 kts 33°
2026-04-24 08:45 56.08219 37.00538 16686 ft 311 kts 33°
2026-04-24 08:45 56.09973 37.02843 17309 ft 316 kts 43°
2026-04-24 08:46 56.11426 37.05826 17922 ft 320 kts 56°
2026-04-24 08:46 56.12497 37.09431 18106 ft 338 kts 70°
2026-04-24 08:46 56.13133 37.13551 18478 ft 347 kts 76°
2026-04-24 08:46 56.13706 37.17709 19010 ft 350 kts 75°
2026-04-24 08:47 56.14300 37.21956 19600 ft 352 kts 76°
2026-04-24 08:47 56.14536 37.26348 20172 ft 357 kts 92°
2026-04-24 08:47 56.14033 37.30736 20746 ft 363 kts 109°
2026-04-24 08:47 56.12798 37.34714 21280 ft 371 kts 127°
2026-04-24 08:48 56.10899 37.37892 21820 ft 378 kts 145°
2026-04-24 08:48 56.08553 37.40082 22340 ft 383 kts 153°
2026-04-24 08:48 56.06121 37.42113 22877 ft 387 kts 153°
2026-04-24 08:48 56.03667 37.44157 23356 ft 390 kts 153°
2026-04-24 08:49 56.01196 37.46215 23798 ft 393 kts 153°
2026-04-24 08:49 55.98773 37.48523 24228 ft 395 kts 144°
2026-04-24 08:49 55.96657 37.51550 24655 ft 396 kts 133°
2026-04-24 08:49 55.94893 37.55314 25090 ft 396 kts 121°
2026-04-24 08:50 55.93575 37.59620 25505 ft 396 kts 110°
2026-04-24 08:50 55.92750 37.64292 25918 ft 395 kts 99°
2026-04-24 08:50 55.92222 37.69120 26329 ft 398 kts 99°
2026-04-24 08:50 55.91498 37.73922 26715 ft 404 kts 108°
2026-04-24 08:51 55.90323 37.78495 27097 ft 410 kts 117°
2026-04-24 08:51 55.88925 37.82937 27475 ft 413 kts 117°
2026-04-24 08:51 55.87517 37.87424 27853 ft 416 kts 117°
2026-04-24 08:51 55.86061 37.91891 28206 ft 420 kts 122°
2026-04-24 08:52 55.84115 37.95811 28542 ft 427 kts 138°
2026-04-24 08:52 55.81616 37.98715 28877 ft 433 kts 154°
2026-04-24 08:52 55.78731 38.00286 29205 ft 438 kts 172°
2026-04-24 08:52 55.75684 38.00357 29517 ft 441 kts 188°
2026-04-24 08:53 55.72724 37.98933 29777 ft 443 kts 205°
2026-04-24 08:53 55.70088 37.96134 30022 ft 443 kts 220°
2026-04-24 08:53 55.67647 37.92776 30276 ft 447 kts 214°
2026-04-24 08:53 55.64877 37.90239 30526 ft 451 kts 201°
2026-04-24 08:54 55.61853 37.88687 30703 ft 456 kts 191°
2026-04-24 08:54 55.58677 37.88104 30818 ft 462 kts 180°
2026-04-24 08:54 55.55493 37.88430 30952 ft 467 kts 174°
2026-04-24 08:54 55.52241 37.88981 31077 ft 472 kts 174°
2026-04-24 08:55 55.48955 37.89514 31239 ft 475 kts 174°
2026-04-24 08:55 55.45657 37.90042 31486 ft 476 kts 174°
2026-04-24 08:55 55.42371 37.90740 31775 ft 476 kts 168°
2026-04-24 08:55 55.39172 37.92238 32066 ft 475 kts 159°
2026-04-24 08:56 55.36152 37.94559 32351 ft 473 kts 150°
2026-04-24 08:56 55.33359 37.97590 32505 ft 471 kts 144°
2026-04-24 08:56 55.30671 38.00769 32537 ft 461 kts 144°
2026-04-24 08:57 55.25370 38.07022 32530 ft 456 kts 144°
2026-04-24 08:57 55.20106 38.13184 32529 ft 455 kts 145°
2026-04-24 08:58 55.14840 38.19315 32524 ft 454 kts 145°
2026-04-24 08:58 55.09575 38.25438 32520 ft 454 kts 145°
2026-04-24 08:59 55.04318 38.31540 32511 ft 454 kts 145°
2026-04-24 08:59 54.99054 38.37622 32507 ft 454 kts 145°
2026-04-24 09:00 54.93821 38.43662 32510 ft 453 kts 145°
2026-04-24 09:00 54.88524 38.49752 32501 ft 453 kts 145°
2026-04-24 09:01 54.83296 38.55729 32500 ft 453 kts 145°
2026-04-24 09:01 54.78029 38.61733 32504 ft 453 kts 145°
2026-04-24 09:02 54.72726 38.67624 32509 ft 453 kts 147°
2026-04-24 09:02 54.67314 38.73220 32503 ft 453 kts 148°
2026-04-24 09:03 54.61878 38.78737 32501 ft 453 kts 148°
2026-04-24 09:03 54.56470 38.84304 32501 ft 452 kts 148°
2026-04-24 09:04 54.51079 38.89899 32497 ft 452 kts 147°
2026-04-24 09:04 54.45694 38.95475 32490 ft 452 kts 148°
2026-04-24 09:05 54.40301 39.01024 32477 ft 452 kts 148°
2026-04-24 09:05 54.34872 39.06609 32485 ft 462 kts 148°
2026-04-24 09:06 54.29310 39.12346 32487 ft 468 kts 148°
2026-04-24 09:06 54.23748 39.18101 32485 ft 468 kts 148°
2026-04-24 09:07 54.18220 39.23826 32479 ft 467 kts 148°
2026-04-24 09:07 54.09903 39.32462 32475 ft 466 kts 148°
2026-04-24 09:08 54.04371 39.38218 32465 ft 466 kts 148°
2026-04-24 09:08 53.98851 39.43974 32461 ft 465 kts 148°
2026-04-24 09:09 53.93346 39.49723 32464 ft 464 kts 148°
2026-04-24 09:09 53.87850 39.55475 32458 ft 464 kts 148°
2026-04-24 09:10 53.82352 39.61240 32461 ft 464 kts 148°
2026-04-24 09:10 53.76911 39.66954 32453 ft 463 kts 148°
2026-04-24 09:11 53.71446 39.72702 32448 ft 462 kts 148°
2026-04-24 09:11 53.65997 39.78447 32438 ft 462 kts 148°
2026-04-24 09:12 53.60561 39.84193 32442 ft 461 kts 147°
2026-04-24 09:12 53.55139 39.89942 32439 ft 460 kts 147°
2026-04-24 09:13 53.49731 39.95687 32428 ft 460 kts 147°
2026-04-24 09:13 53.44328 40.01430 32430 ft 459 kts 147°
2026-04-24 09:14 53.38938 40.07174 32430 ft 459 kts 147°
2026-04-24 09:14 53.33555 40.12925 32420 ft 458 kts 147°
2026-04-24 09:15 53.28186 40.18677 32416 ft 458 kts 147°
2026-04-24 09:15 53.22823 40.24437 32415 ft 458 kts 147°
2026-04-24 09:16 53.17502 40.30167 32411 ft 457 kts 147°
2026-04-24 09:16 53.12161 40.35925 32414 ft 457 kts 147°
2026-04-24 09:17 53.06942 40.41882 32389 ft 448 kts 137°
2026-04-24 09:17 53.04935 40.45773 32392 ft 442 kts 122°
2026-04-24 09:17 53.03600 40.50367 32395 ft 441 kts 107°
2026-04-24 09:18 53.03039 40.55354 32392 ft 441 kts 92°
2026-04-24 09:18 53.03032 40.60460 32390 ft 442 kts 90°
2026-04-24 09:18 53.03044 40.70674 32392 ft 442 kts 90°
2026-04-24 09:19 53.03025 40.80826 32391 ft 442 kts 91°
2026-04-24 09:19 53.02988 40.91032 32389 ft 442 kts 91°
2026-04-24 09:20 53.02947 41.01243 32389 ft 441 kts 91°
2026-04-24 09:20 53.02902 41.11450 32393 ft 441 kts 91°
2026-04-24 09:21 53.02855 41.21555 32396 ft 440 kts 91°
2026-04-24 09:21 53.02801 41.31716 32397 ft 440 kts 91°
2026-04-24 09:22 53.02731 41.41872 32403 ft 440 kts 92°
2026-04-24 09:22 53.02643 41.52028 32398 ft 439 kts 92°
2026-04-24 09:23 53.02547 41.62173 32392 ft 438 kts 92°
2026-04-24 09:23 53.02464 41.72297 32396 ft 438 kts 92°
2026-04-24 09:24 53.02371 41.82416 32397 ft 438 kts 92°
2026-04-24 09:24 53.02267 41.92536 32394 ft 438 kts 92°
2026-04-24 09:25 53.02143 42.02645 32399 ft 438 kts 92°
2026-04-24 09:25 53.02004 42.12695 32396 ft 437 kts 93°
2026-04-24 09:26 53.01866 42.22797 32394 ft 437 kts 93°
2026-04-24 09:26 53.01723 42.32887 32393 ft 437 kts 93°
2026-04-24 09:27 53.01568 42.43005 32392 ft 437 kts 93°
2026-04-24 09:27 53.01402 42.53095 32391 ft 437 kts 93°
2026-04-24 09:28 53.01317 42.58141 32241 ft 437 kts 93°
2026-04-24 09:28 53.01232 42.63160 31977 ft 433 kts 94°
2026-04-24 09:28 53.01145 42.68132 31702 ft 429 kts 94°
2026-04-24 09:28 53.01057 42.73049 31203 ft 425 kts 94°
2026-04-24 09:29 53.00969 42.77946 30675 ft 422 kts 94°
2026-04-24 09:29 53.00881 42.82736 30170 ft 419 kts 94°
2026-04-24 09:29 53.00790 42.87622 29655 ft 417 kts 94°
2026-04-24 09:29 53.00699 42.92410 29083 ft 414 kts 94°
2026-04-24 09:30 53.00605 42.97155 28596 ft 408 kts 94°
2026-04-24 09:30 53.00511 43.01761 28117 ft 402 kts 95°
2026-04-24 09:30 53.00415 43.06374 27653 ft 397 kts 95°
2026-04-24 09:30 53.00315 43.10925 27202 ft 392 kts 95°
2026-04-24 09:31 53.00214 43.15422 26761 ft 388 kts 95°
2026-04-24 09:31 53.00113 43.19880 26332 ft 385 kts 95°
2026-04-24 09:31 53.00012 43.24298 25898 ft 381 kts 95°
2026-04-24 09:31 52.99915 43.28679 25473 ft 377 kts 95°
2026-04-24 09:32 52.99817 43.33008 25049 ft 373 kts 95°
2026-04-24 09:32 52.99750 43.35907 24755 ft 371 kts 95°
2026-04-24 09:32 52.99650 43.40162 24316 ft 367 kts 95°
2026-04-24 09:32 52.99552 43.44328 23885 ft 364 kts 95°
2026-04-24 09:33 52.99451 43.48509 23440 ft 361 kts 95°
2026-04-24 09:33 52.99346 43.52656 22986 ft 358 kts 95°
2026-04-24 09:33 52.99240 43.56771 22469 ft 355 kts 95°
2026-04-24 09:33 52.99135 43.60846 22034 ft 351 kts 96°
2026-04-24 09:34 52.99032 43.64865 21600 ft 347 kts 96°
2026-04-24 09:34 52.98930 43.68854 21156 ft 345 kts 96°
2026-04-24 09:34 52.98828 43.72812 20723 ft 342 kts 96°
2026-04-24 09:34 52.98723 43.76738 20298 ft 339 kts 96°
2026-04-24 09:35 52.98616 43.80623 19874 ft 336 kts 96°
2026-04-24 09:35 52.98510 43.84475 19453 ft 333 kts 96°
2026-04-24 09:35 52.98405 43.88306 19039 ft 331 kts 96°
2026-04-24 09:35 52.98297 43.92103 18634 ft 329 kts 96°
2026-04-24 09:36 52.98188 43.95878 18229 ft 327 kts 97°
2026-04-24 09:36 52.98081 43.99644 17823 ft 326 kts 97°
2026-04-24 09:36 52.97976 44.03383 17388 ft 324 kts 97°
2026-04-24 09:36 52.97869 44.07111 16982 ft 321 kts 97°
2026-04-24 09:37 52.97761 44.10796 16576 ft 319 kts 97°
2026-04-24 09:37 52.97652 44.14452 16206 ft 316 kts 97°
2026-04-24 09:37 52.97540 44.18082 15823 ft 314 kts 97°
2026-04-24 09:37 52.97427 44.21692 15445 ft 313 kts 97°
2026-04-24 09:38 52.97316 44.25250 15070 ft 313 kts 97°
2026-04-24 09:38 52.97205 44.28848 14697 ft 311 kts 97°
2026-04-24 09:38 52.97093 44.32423 14318 ft 310 kts 97°
2026-04-24 09:38 52.96980 44.35992 13947 ft 308 kts 97°
2026-04-24 09:39 52.96866 44.39536 13574 ft 307 kts 97°
2026-04-24 09:39 52.96750 44.43073 13196 ft 306 kts 97°
2026-04-24 09:39 52.96633 44.46590 12794 ft 305 kts 98°
2026-04-24 09:39 52.96517 44.50089 12415 ft 302 kts 98°
2026-04-24 09:40 52.96401 44.53555 12048 ft 300 kts 98°
2026-04-24 09:40 52.96287 44.56997 11670 ft 298 kts 98°
2026-04-24 09:40 52.96175 44.60408 11365 ft 294 kts 98°
2026-04-24 09:40 52.96063 44.63799 11015 ft 293 kts 98°
2026-04-24 09:41 52.95947 44.67176 10620 ft 292 kts 98°
2026-04-24 09:41 52.95831 44.70524 10227 ft 291 kts 98°
2026-04-24 09:41 52.95714 44.73853 9850 ft 288 kts 98°
2026-04-24 09:41 52.95597 44.77123 9419 ft 279 kts 99°
2026-04-24 09:42 52.95485 44.80310 9026 ft 276 kts 99°
2026-04-24 09:42 52.95373 44.83469 8643 ft 274 kts 98°
2026-04-24 09:42 52.95260 44.86614 8262 ft 272 kts 98°
2026-04-24 09:42 52.95145 44.89738 7878 ft 271 kts 98°
2026-04-24 09:43 52.95028 44.92835 7496 ft 268 kts 98°
2026-04-24 09:43 52.94912 44.95912 7113 ft 266 kts 98°
2026-04-24 09:43 52.94801 44.98931 6724 ft 265 kts 98°
2026-04-24 09:43 52.94690 45.01969 6330 ft 263 kts 98°
2026-04-24 09:44 52.94579 45.04990 5932 ft 262 kts 98°
2026-04-24 09:44 52.94465 45.07999 5514 ft 261 kts 98°
2026-04-24 09:44 52.94350 45.10989 5110 ft 258 kts 98°
2026-04-24 09:44 52.94235 45.13953 4707 ft 257 kts 99°
2026-04-24 09:45 52.94121 45.16903 4303 ft 256 kts 99°
2026-04-24 09:45 52.94257 45.19828 4080 ft 255 kts 79°
2026-04-24 09:45 52.95021 45.22444 3939 ft 252 kts 57°
2026-04-24 09:45 52.96291 45.24384 3803 ft 248 kts 34°
2026-04-24 09:46 52.97809 45.25668 3670 ft 243 kts 29°
2026-04-24 09:46 52.99319 45.26900 3531 ft 240 kts 30°
2026-04-24 09:46 53.00814 45.28088 3403 ft 236 kts 23°
2026-04-24 09:46 53.02396 45.28291 3268 ft 227 kts 341°
2026-04-24 09:47 53.03662 45.26916 3133 ft 214 kts 301°
2026-04-24 09:47 53.04232 45.24779 2969 ft 197 kts 282°
2026-04-24 09:47 53.04772 45.22705 2753 ft 194 kts 290°
2026-04-24 09:47 53.05392 45.20721 2509 ft 194 kts 292°
2026-04-24 09:48 53.06036 45.18761 2309 ft 190 kts 293°
2026-04-24 09:48 53.06653 45.16918 2223 ft 175 kts 291°
2026-04-24 09:48 53.07186 45.15205 2083 ft 162 kts 289°
2026-04-24 09:48 53.07680 45.13564 1869 ft 156 kts 288°
2026-04-24 09:49 53.08158 45.11957 1657 ft 154 kts 288°
2026-04-24 09:49 53.08630 45.10368 1444 ft 153 kts 288°
2026-04-24 09:49 53.09099 45.08785 1222 ft 151 kts 289°
2026-04-24 09:49 53.09561 45.07225 1023 ft 149 kts 290°
2026-04-24 09:50 53.10020 45.05675 812 ft 150 kts 291°
2026-04-24 09:50 53.10477 45.04134 623 ft 147 kts 290°
2026-04-24 09:50 53.10869 45.02797 602 ft 105 kts 297°
2026-04-24 09:50 53.11117 45.01964 598 ft 56 kts 297°
2026-04-24 09:51 53.11252 45.01503 597 ft 42 kts 296°
2026-04-24 09:51 53.11378 45.01079 596 ft 37 kts 297°
2026-04-24 09:51 53.11474 45.00804 593 ft 19 kts 330°
2026-04-24 09:51 53.11558 45.00915 595 ft 20 kts 55°
2026-04-24 09:52 53.11634 45.01108 596 ft 14 kts 62°
2026-04-24 09:52 53.11639 45.01165 596 ft 16 kts 93°
2026-04-24 09:52 53.11626 45.01420 596 ft 23 kts 95°
2026-04-24 09:52 53.11609 45.01692 596 ft 24 kts 95°
2026-04-24 09:53 53.11592 45.01975 596 ft 25 kts 95°
2026-04-24 09:53 53.11578 45.02268 596 ft 24 kts 91°
2026-04-24 09:53 53.11577 45.02470 596 ft 10 kts 90°
2026-04-24 09:53 53.11613 45.02527 596 ft 7 kts
2026-04-24 09:54 53.11660 45.02519 596 ft 6 kts 332°
2026-04-24 09:54 53.11667 45.02465 596 ft 4 kts 270°
2026-04-24 09:54 53.11667 45.02423 596 ft 1 kts 270°
2026-04-24 09:54 53.11667 45.02420 596 ft 0 kts 270°